Location: Spruce Knob
(38.6995°N, 79.5330°W)
Time: 15:05:42
(UTC-04:00)

Hubble Space Telescope - Visible Passes

Search period start: 24 March 2023 00:00
Search period end: 03 April 2023 00:00
Orbit: 527 x 530 km, 28.5° (Epoch: 24 March)

Date Brightness Start Highest point End Pass type
(mag) Time Alt. Az. Time Alt. Az. Time Alt. Az.
31 Mar 3.0 20:22:37 10° S 20:23:30 11° SSE 20:24:23 10° SSE visible
01 Apr 2.9 20:07:53 10° S 20:09:30 12° SSE 20:11:08 10° SE visible
01 Apr 3.2 21:46:53 10° SW 21:47:39 13° SW 21:47:39 13° SW visible
02 Apr 2.7 21:32:52 10° SW 21:34:41 17° SSW 21:34:41 17° SSW visible
